Content
SEND FEEDBACK

Daily
Averages
Monthly
Summary
United States of America

PALMETTO, TENNESSEE


Home > North America > United States > Tennessee
Elevation: 77 feet     Latitude: 35 29N     Longitude: 086 35W

WEATHER
 
SELECT A DAY
Number of Records: 55,217;   Date Range: 9/2/10 - 8/29/14
 
SHARE

PRINT THIS DATA

[ ← Previous Day ]
WEATHER ALMANAC - JANUARY 23, 2013
[ Next Day → ]
[ °C ]   °F
Weather ElementAverageHighLow
Temperature38.1 °F50 °F (1:55 pm)28.4 °F (12:35 am)
Dewpoint21.6 °F35.6 °F (10:35 pm)10.4 °F (12:35 am)
Humidity52.8 %76 % (9:55 pm)37 % (12:15 pm)
Barometer30.26 in30.35 in (8:55 am)30.16 in (5:55 pm)
Wind Speed4.3 mph12.7 mph (11:55 am)
Weather ElementAverage
Visibility10 mi
Wind DirectionSE (132.8 °)

Weather ElementTotal
Precipitation---
Heating Degree Days25.8 (Base 65)
Averaged from 71 records on January 23, 2013
WEATHER CONDITIONS BREAKOUT
WIND DIRECTION BREAKOUT
WEATHER BY HOUR - JANUARY 23, 2013
[ °C ]   °F
Local TimeTemperatureDewpointHumidityBarometerVisibilityWind DirectionWind SpeedGust SpeedPrecipitationEventsConditions
12:35 AM28.4 °F10.4 °F47 %30.32 in10.0 miNE (40°)3.5 mphOvercast
12:55 AM28.4 °F12.2 °F51 %30.33 in10.0 miNE (50°)3.5 mphOvercast
1:15 AM28.4 °F10.4 °F47 %30.32 in10.0 miCalmOvercast
1:35 AM28.4 °F10.4 °F47 %30.32 in10.0 miESE (110°)3.5 mphOvercast
1:55 AM28.4 °F10.4 °F47 %30.33 in10.0 miCalmOvercast
2:15 AM28.4 °F10.4 °F47 %30.33 in10.0 miCalmOvercast
2:35 AM28.4 °F10.4 °F47 %30.33 in10.0 miCalmOvercast
2:55 AM28.4 °F10.4 °F47 %30.33 in10.0 miCalmOvercast
3:15 AM28.4 °F10.4 °F47 %30.32 in10.0 miCalmOvercast
3:35 AM28.4 °F10.4 °F47 %30.33 in10.0 miCalmOvercast
3:55 AM28.4 °F10.4 °F47 %30.32 in10.0 miCalmOvercast
4:15 AM28.4 °F10.4 °F47 %30.33 in10.0 miCalmOvercast
4:35 AM28.4 °F10.4 °F47 %30.33 in10.0 miCalmOvercast
4:55 AM28.4 °F12.2 °F51 %30.32 in10.0 miCalmOvercast
5:15 AM28.4 °F12.2 °F51 %30.33 in10.0 miCalmOvercast
5:35 AM28.4 °F12.2 °F51 %30.33 in10.0 miCalmOvercast
5:55 AM28.4 °F12.2 °F51 %30.33 in10.0 miCalmOvercast
6:15 AM28.4 °F12.2 °F51 %30.33 in10.0 miCalmOvercast
6:35 AM28.4 °F15.8 °F59 %30.34 in10.0 miCalmOvercast
6:55 AM28.4 °F14.0 °F55 %30.33 in10.0 miCalmOvercast
7:15 AM28.4 °F14.0 °F55 %30.33 in10.0 miSSE (160°)3.5 mphOvercast
7:35 AM28.4 °F14.0 °F55 %30.32 in10.0 miCalmOvercast
7:55 AM28.4 °F14.0 °F55 %30.32 in10.0 miSSE (150°)4.6 mphOvercast
8:15 AM30.2 °F14.0 °F51 %30.33 in10.0 miSouth (170°)3.5 mphPartly Cloudy
8:35 AM32.0 °F14.0 °F48 %30.34 in10.0 miSouth (180°)3.5 mphClear
8:55 AM33.8 °F14.0 °F44 %30.35 in10.0 miCalmClear
9:15 AM35.6 °F15.8 °F44 %30.35 in10.0 miSouth (180°)4.6 mphClear
9:35 AM35.6 °F17.6 °F48 %30.35 in10.0 miVariable4.6 mphClear
9:55 AM39.2 °F17.6 °F42 %30.35 in10.0 miWSW (240°)6.9 mphClear
10:15 AM39.2 °F17.6 °F42 %30.34 in10.0 miWSW (240°)5.8 mphClear
10:35 AM41.0 °F19.4 °F42 %30.34 in10.0 miWSW (250°)6.9 mphClear
10:55 AM42.8 °F19.4 °F39 %30.32 in10.0 miVariable4.6 mphClear
11:15 AM42.8 °F19.4 °F39 %30.31 in10.0 miWSW (240°)5.8 mphClear
11:35 AM44.6 °F21.2 °F39 %30.30 in10.0 miVariable4.6 mphClear
11:55 AM44.6 °F21.2 °F39 %30.28 in10.0 miWSW (250°)12.7 mphClear
12:15 PM46.4 °F21.2 °F37 %30.27 in10.0 miVariable6.9 mphClear
12:35 PM46.4 °F23.0 °F40 %30.25 in10.0 miSSW (210°)12.7 mphClear
12:55 PM46.4 °F24.8 °F43 %30.23 in10.0 miSouth (180°)3.5 mphClear
1:15 PM48.2 °F24.8 °F40 %30.23 in10.0 miSW (230°)11.5 mphClear
1:35 PM48.2 °F24.8 °F40 %30.22 in10.0 miSSW (210°)9.2 mphClear
1:55 PM50.0 °F26.6 °F40 %30.21 in10.0 miSW (220°)9.2 mphClear
2:15 PM50.0 °F26.6 °F40 %30.21 in10.0 miSW (220°)8.1 mphClear
2:35 PM50.0 °F26.6 °F40 %30.20 in10.0 miWSW (250°)10.4 mphClear
2:55 PM50.0 °F28.4 °F43 %30.20 in10.0 miSW (230°)8.1 mphClear
3:15 PM50.0 °F28.4 °F43 %30.19 in10.0 miSW (230°)10.4 mphClear
3:35 PM50.0 °F28.4 °F43 %30.19 in10.0 miSSW (210°)9.2 mphClear
3:55 PM48.2 °F28.4 °F46 %30.18 in10.0 miSW (220°)10.4 mphClear
4:15 PM48.2 °F28.4 °F46 %30.18 in10.0 miSW (220°)9.2 mphClear
4:35 PM46.4 °F28.4 °F50 %30.19 in10.0 miSSW (210°)5.8 mphClear
4:55 PM46.4 °F28.4 °F50 %30.18 in10.0 miSW (220°)4.6 mphClear
5:15 PM44.6 °F28.4 °F53 %30.18 in10.0 miSSW (200°)3.5 mphClear
5:35 PM44.6 °F28.4 °F53 %30.17 in10.0 miSouth (190°)3.5 mphClear
5:55 PM44.6 °F28.4 °F53 %30.16 in10.0 miSouth (190°)3.5 mphClear
6:15 PM41.0 °F28.4 °F61 %30.16 in10.0 miCalmClear
6:35 PM39.2 °F28.4 °F65 %30.16 in10.0 miCalmClear
6:55 PM37.4 °F28.4 °F70 %30.16 in10.0 miCalmClear
7:15 PM33.8 °F26.6 °F75 %30.16 in10.0 miCalmClear
7:35 PM35.6 °F28.4 °F75 %30.16 in10.0 miSW (230°)3.5 mphClear
7:55 PM39.2 °F30.2 °F70 %30.16 in10.0 miWSW (240°)8.1 mphClear
8:15 PM41.0 °F32.0 °F70 %30.16 in10.0 miSW (230°)9.2 mphClear
8:35 PM41.0 °F32.0 °F70 %30.16 in10.0 miSW (230°)6.9 mphClear
8:55 PM39.2 °F32.0 °F75 %30.17 in10.0 miWSW (240°)5.8 mphClear
9:15 PM37.4 °F30.2 °F75 %30.18 in10.0 miWest (260°)4.6 mphClear
9:35 PM39.2 °F30.2 °F70 %30.19 in10.0 miWest (260°)4.6 mphMostly Cloudy
9:55 PM41.0 °F33.8 °F76 %30.19 in10.0 miWSW (250°)4.6 mphOvercast
10:15 PM42.8 °F33.8 °F70 %30.20 in10.0 miWest (260°)3.5 mphOvercast
10:35 PM42.8 °F35.6 °F76 %30.19 in10.0 miWSW (250°)5.8 mphOvercast
10:55 PM44.6 °F35.6 °F71 %30.19 in10.0 miWest (260°)5.8 mphOvercast
11:15 PM44.6 °F35.6 °F71 %30.20 in10.0 miWest (280°)8.1 mphOvercast
11:35 PM44.6 °F35.6 °F71 %30.19 in10.0 miWest (270°)6.9 mphOvercast
11:55 PM44.6 °F35.6 °F71 %30.19 in10.0 miWest (270°)9.2 mphOvercast
Hourly data recorded from KTHA, located miles away from Palmetto, Tennessee







STORIES FROM OUR PARTNERS